GFSMA_con_mlcape_057.txt.gz
CAPE
1173 746 618 647 992 1018 1070 1156 1012 666 492 604 1160 1207 1049 941 582 467 603 825 928 726 1145 1265 1379 1491 1336 1232 1147 1219 1144 1178 511 433 679 914 762 716 772 735 752 711 565
946 589 581 948 1122 1108 998 1036 964 604 286 514 1273 1313 1184 841 581 494 922 659 911 712 527 549 806 993 1015 909 924 838 1122 847 722 965 1011 899 655 693 772 653 560 778 725
494 642 1030 1050 1238 1247 753 1030 1108 658 106 315 1017 1221 1094 986 406 420 784 971 601 665 1114 564 364 320 363 471 605 669 415 342 619 684 467 638 915 667 896 319 439 408 344
927 1088 1060 1132 1226 1117 1171 469 489 506 207 168 649 784 939 752 353 347 522 792 849 729 603 666 873 974 1047 1176 943 859 719 669 318 274 280 375 714 623 507 429 433 346 305
529 1223 1203 1316 1258 1323 1229 1117 831 370 211 104 333 560 487 231 132 115 283 501 721 749 768 819 536 467 621 811 619 823 898 871 879 883 723 684 658 540 373 266 221 212 224
1000 974 1236 1187 1047 874 709 954 886 734 370 96 97 151 238 242 264 103 190 210 267 477 399 725 795 672 602 927 909 995 897 825 742 668 636 554 427 320 208 214 165 75 102
1071 1095 1177 1104 782 675 479 595 451 233 355 41 38 92 81 118 278 175 205 214 255 240 233 400 473 468 354 174 288 694 945 981 893 835 642 384 295 220 162 75 79 25 0
1211 1247 941 939 767 882 761 710 196 28 81 75 86 96 67 52 49 110 230 286 365 419 358 273 391 500 419 347 345 385 639 669 554 493 337 121 77 50 12 6 0 0 0
1325 1355 990 1011 695 705 750 781 173 18 47 86 55 88 58 29 25 12 64 253 463 486 553 581 465 424 526 436 238 53 160 135 211 266 106 15 0 0 0 0 0 0 0
1262 1485 1395 1016 1010 918 673 1151 773 277 15 40 27 18 23 38 2 11 31 105 369 485 604 530 339 428 531 537 180 0 0 39 50 46 1 0 0 0 0 0 0 0 0
1195 1430 1488 1328 1159 1007 774 1133 978 767 117 19 20 26 42 27 4 10 7 71 111 334 473 499 328 330 530 600 350 111 0 0 0 0 0 0 0 0 0 0 0 0 0
1014 1225 1410 1508 1630 1379 1178 1237 1289 1006 519 11 0 12 10 10 48 56 32 60 32 168 337 426 369 337 392 551 513 83 0 0 0 0 0 0 0 0 0 0 0 0 0
751 979 1199 1365 1402 1552 1478 1336 1343 1398 1034 313 0 0 68 52 36 121 73 134 140 237 205 280 271 357 392 546 579 299 85 0 0 0 0 0 0 0 0 0 0 0 0
303 799 913 1185 1318 1625 1600 1571 1519 1495 1466 1059 609 287 51 40 17 70 75 89 151 286 372 264 480 361 351 442 613 402 357 46 0 0 0 0 0 0 0 0 0 0 0
105 400 478 725 1039 1324 1569 1674 1611 1554 1395 1529 1320 1182 758 582 235 139 66 29 48 36 114 374 285 666 537 525 474 555 581 465 36 0 0 0 0 0 0 0 0 0 0
124 58 267 706 947 1141 1407 1611 1554 1775 1751 1582 1502 1672 1666 1287 968 691 342 127 51 57 95 220 230 356 406 300 423 289 477 369 169 12 0 0 0 0 0 0 0 0 0
271 240 225 460 827 1061 1252 1424 1405 1668 1887 1963 1893 1637 1417 1580 1541 1431 936 716 445 240 182 220 390 288 347 424 404 423 387 380 336 55 0 0 0 0 0 0 0 0 0
315 340 378 454 724 883 1055 1194 1069 1228 1533 1772 2067 2076 1757 1722 1816 1911 1657 1397 1086 904 495 292 406 492 447 517 611 534 485 311 271 161 0 0 0 0 0 0 0 0 0
370 374 402 368 376 698 954 1130 1059 1260 1524 1641 1997 2201 2142 2162 1922 1756 1931 1689 1631 1591 1252 894 799 737 629 452 469 463 390 431 400 175 21 0 0 0 0 0 0 0 0
430 467 486 499 489 621 860 1150 1254 1246 1370 1685 1918 2124 2217 2251 2256 2179 2139 2168 2076 1781 1618 1567 1278 1193 1222 1200 811 472 445 504 425 241 134 34 6 0 0 0 0 0 0
577 622 614 603 667 736 624 789 1024 1283 1498 1625 1826 1995 2138 2067 1894 2071 2225 2225 2179 2044 1755 1354 1286 1118 1025 984 938 851 753 678 609 551 410 275 125 44 5 0 0 0 0
633 755 755 759 797 826 452 359 705 1121 1610 1743 1601 1814 1865 1602 1367 1166 1243 1488 1933 2268 2144 2008 1785 1765 1971 1779 1681 1588 1427 1299 1271 1121 761 405 201 154 133 68 0 0 0
956 834 826 839 888 1003 585 269 184 662 1014 1240 1492 1762 1916 1877 1777 1897 1839 1241 1164 1178 1410 1886 2141 2313 2363 2408 2290 2175 2040 1851 1739 1598 1277 949 754 384 73 51 0 0 0
1172 1253 1227 1250 1146 1141 796 424 248 470 858 1171 1354 1448 1516 1595 2022 1935 1906 2194 2412 2441 2030 1540 1618 1902 2330 2579 2638 2611 2561 2329 1940 1691 1376 790 877 884 619 122 0 0 0
1018 1064 1309 1458 1331 1301 902 559 450 850 1020 1161 1440 1612 1701 1630 1739 1514 1551 1480 1826 2210 2188 2014 1851 1713 1572 1450 1407 1672 1639 1639 1565 1328 1396 964 500 458 319 339 134 0 0
1357 1394 1317 1439 1468 1424 1274 638 470 1017 1205 1286 1616 1800 1541 1630 1793 1566 1632 1772 1981 2349 2678 2864 3029 2208 1553 1663 1253 1002 1343 1462 1455 1441 1371 922 425 237 382 207 163 57 0

GFSMA_con_mlcape_063.txt.gz
CAPE
701 866 665 538 955 697 427 293 334 670 882 769 804 504 306 221 254 242 303 622 927 1314 1411 1399 1418 1293 1178 1078 1111 1096 1218 725 467 676 873 862 646 706 661 522 643 793 553
965 777 856 644 673 448 732 715 621 411 579 609 654 762 412 434 655 645 329 569 360 419 721 975 1347 1210 920 1081 961 689 1159 782 740 940 843 695 767 703 709 440 336 443 419
1435 1272 976 390 717 867 1097 625 108 36 125 369 231 609 221 379 537 757 600 759 658 402 290 277 280 301 383 467 597 710 357 222 198 402 397 181 249 695 640 594 475 427 372
1459 1138 821 743 617 547 458 414 92 282 66 154 232 297 167 187 439 434 643 802 975 1058 753 585 557 552 700 923 863 860 920 870 744 437 584 757 852 792 662 470 374 261 329
1586 1471 969 1308 944 1024 268 179 7 140 72 27 62 83 300 42 325 274 248 482 533 718 1072 331 254 378 358 599 851 671 893 862 688 562 648 827 777 795 583 361 210 149 185
1548 1621 1168 1119 976 375 219 539 150 415 421 42 162 97 120 61 50 108 59 91 183 301 662 1082 793 515 273 271 857 1052 1035 973 799 909 813 718 707 534 404 208 115 91 8
1548 1755 1407 1288 1180 762 696 295 356 156 26 16 58 48 47 38 60 73 45 58 2 41 23 288 286 583 721 215 228 352 647 1009 1048 918 828 674 392 358 218 109 81 8 0
1608 1459 1514 1377 1179 764 840 913 860 223 22 31 20 66 37 44 146 71 7 16 124 171 259 255 213 208 151 492 727 177 63 500 592 521 445 276 125 71 26 39 0 0 0
1656 1683 1745 1027 1185 1184 832 995 944 674 164 52 289 44 94 22 14 0 0 78 383 385 384 413 392 314 364 447 171 137 1 0 38 191 142 15 3 0 0 0 0 0 0
1505 1748 1936 1878 1350 1155 1011 1055 702 701 380 66 11 67 73 90 310 2 31 133 331 384 529 575 670 610 499 503 298 25 120 0 0 3 16 0 0 0 0 0 0 0 0
1516 1417 1872 1685 1770 1170 1185 1020 1307 1048 177 480 14 0 0 0 112 264 361 252 256 334 512 674 435 445 859 566 459 503 1 0 0 0 0 0 0 0 0 0 0 0 0
1290 1378 1548 1782 1597 1443 1544 1425 1336 1228 1310 391 421 33 0 11 15 100 118 150 325 342 317 340 401 418 479 691 754 399 175 0 0 0 0 0 0 0 0 0 0 0 0
327 1228 1556 1842 1924 1973 1630 1578 1701 1591 1502 985 925 36 36 64 136 149 195 178 178 230 225 328 398 606 665 720 758 682 388 48 0 0 0 0 0 0 0 0 0 0 0
151 1640 1879 1486 1730 1986 1557 1711 1578 1532 1724 1437 1512 1092 725 81 164 178 165 238 168 115 257 350 616 722 787 829 897 694 836 399 148 0 0 0 0 0 0 0 0 0 0
316 264 878 1564 1409 1292 1691 1676 1437 1932 1322 1902 1626 1657 1152 409 145 163 131 183 194 326 419 1341 824 930 923 728 894 1031 1018 1049 506 251 70 1 0 0 0 0 0 0 0
829 667 683 786 1351 1354 1362 1925 1517 1681 1966 1740 1212 1584 1471 570 480 499 339 298 330 312 333 344 433 502 683 795 769 928 892 756 692 626 411 193 41 0 0 0 0 0 0
1446 1234 1194 1079 1062 1223 1284 1979 1798 1731 2105 1969 1977 1482 1753 1729 1537 880 719 626 558 499 434 409 319 421 1178 1645 1607 1611 1427 1411 1163 698 499 345 166 50 1 0 0 0 0
1754 1723 1708 1489 1301 916 1305 2055 1820 1398 1835 1818 2058 2014 1762 1637 2098 2164 1817 1590 930 924 778 906 871 971 1248 1465 1458 1724 1569 1565 1314 1041 648 344 196 76 36 20 0 0 0
2082 1684 1802 2018 1680 1139 1275 1973 2235 2001 1767 1852 1802 1952 2124 2135 2344 1964 2118 1347 1170 1611 1736 1778 1829 1774 1621 1462 1510 1741 1936 2053 2021 1447 958 583 301 146 76 31 6 0 0
2181 2122 2164 2147 1985 1651 1261 1271 1756 2113 2082 1729 1823 1878 2087 2302 2549 2888 2673 2804 2587 2320 1769 1703 1581 1508 1487 1486 1328 1239 1338 1398 1538 1514 1436 1468 1248 606 343 141 28 0 0
2239 2393 2425 2322 2244 1799 1393 1278 1480 1796 2080 1912 1846 1934 2002 2227 2122 2723 2600 2607 2529 2567 2188 1961 1746 1636 1464 1298 1610 1838 1568 2041 2248 2227 2215 2191 1927 2251 2137 496 280 28 0
2310 2502 2449 2520 2330 1657 1116 843 1048 1184 1465 1704 2005 2216 2163 2198 2075 1963 2147 2308 2305 2523 3033 2198 1714 1529 1732 1967 2049 2129 2606 2572 2905 2612 2683 3220 3199 3101 3041 3098 2730 1757 655
2497 2650 2614 2639 2628 2410 1240 829 517 778 1229 1498 1708 2196 2204 1369 1923 2574 2395 2216 2105 1819 1576 1682 1905 2153 2277 2608 2946 3230 2595 2704 3056 3421 3222 3355 3120 2895 2920 2890 2590 1941 1364
2455 2601 2692 2732 2804 2710 1994 1088 698 842 878 1061 1614 1914 2079 1849 2039 2432 2686 2500 2517 2746 2704 2300 2197 2372 2682 2838 2918 2951 3082 2898 3157 3292 3229 3064 3052 3009 3238 3067 2696 2298 1177
2710 2639 2877 2902 2916 2774 1931 1397 1049 1198 1255 1512 1676 1551 1795 2271 2612 2154 1689 1492 1726 2115 1795 1314 1242 1446 1796 1980 1874 1921 2248 2744 3188 3009 2984 2979 3097 3191 2741 2674 1980 1452 923
2885 2474 2639 2990 3039 3081 2668 1619 1271 1629 1503 1560 1921 2156 1990 1881 1925 1892 2197 2355 2333 2496 2535 2218 2365 2541 2257 2556 2505 2432 2955 3137 3107 3151 3224 2893 2998 2354 1979 2188 1510 1181 939

GFSMA_con_mlcape_069.txt.gz
CAPE
263 620 526 83 206 552 516 377 415 264 465 429 633 473 392 242 223 623 1008 1104 1088 1457 1310 1342 1235 1165 1050 1275 933 960 970 250 388 789 819 575 540 448 627 211 403 418 404
860 361 237 210 193 507 568 495 482 380 291 475 329 502 336 338 179 108 277 709 1023 1282 1303 1261 1189 1033 861 795 759 726 791 404 474 366 149 85 257 570 516 491 375 293 291
765 656 533 376 80 610 192 489 866 732 388 349 493 278 592 339 152 65 0 270 715 675 1016 1280 1266 753 583 579 381 423 357 163 34 71 80 61 218 561 413 395 275 209 230
578 623 265 201 868 974 486 111 371 378 328 498 180 368 476 487 432 364 307 114 79 49 161 237 368 132 133 231 353 400 403 534 706 597 485 637 587 463 547 321 239 136 133
989 554 285 470 253 598 438 298 71 235 300 351 74 219 484 470 523 553 685 709 416 416 49 120 66 102 337 613 985 1042 1064 779 639 592 498 540 583 525 479 335 196 91 83
832 736 538 744 203 285 251 341 100 127 72 127 286 205 395 254 369 334 631 890 745 795 630 478 214 248 302 830 858 872 684 774 712 550 769 757 523 451 291 220 136 76 25
545 0 664 967 758 45 116 239 659 55 49 112 152 88 119 187 86 203 479 605 746 951 907 894 483 468 396 327 524 688 832 799 877 766 598 419 335 131 111 95 109 41 0
891 648 743 998 609 421 528 491 79 35 16 12 125 161 86 3 167 228 227 358 141 594 744 853 779 685 657 320 443 548 264 363 583 495 374 198 114 49 4 0 1 12 0
1343 1244 883 1011 660 719 660 739 173 33 17 24 102 80 52 5 200 3 13 72 55 284 363 545 534 523 728 604 649 470 163 4 42 97 153 88 3 0 0 0 0 0 0
1363 1213 1022 910 855 702 826 814 821 375 108 120 441 224 157 47 247 0 0 62 125 498 403 428 402 432 344 493 715 637 380 0 0 0 3 9 0 0 0 0 0 0 0
1273 1466 1325 1352 759 757 592 538 880 1080 720 294 552 39 131 3 10 157 46 209 279 256 488 380 599 563 467 443 707 648 428 42 0 0 0 0 0 0 0 0 0 0 0
1489 1435 1744 1404 778 887 1048 895 1377 868 830 813 868 645 11 0 12 67 496 309 238 262 492 585 463 704 601 539 589 495 474 284 0 0 0 0 0 0 0 0 0 0 0
1176 1377 1652 1396 1150 975 1157 1145 1176 1104 1324 810 967 996 725 704 843 198 195 320 309 363 391 589 558 343 549 645 577 603 542 341 68 0 0 0 0 0 0 0 0 0 0
983 960 1589 1166 1033 1037 1211 1236 1068 945 1462 1211 717 1011 743 421 870 324 181 165 128 265 375 201 210 315 329 589 650 638 587 451 190 58 6 0 0 0 0 0 0 0 0
1048 726 1435 1273 1002 1295 1070 1342 1078 871 1109 1519 1441 705 751 387 485 481 303 146 142 132 205 514 591 836 446 455 628 792 597 506 310 246 169 86 23 3 0 0 0 0 0
760 1082 1452 1254 1383 1230 1205 1410 1034 1105 1072 1043 1060 1040 616 170 95 651 794 131 255 191 263 357 296 450 1264 926 852 813 617 610 639 643 481 344 227 137 90 6 0 0 0
776 1024 1398 1464 1910 1885 1390 1390 1206 1226 1273 1072 989 1228 1637 1196 389 701 1450 1297 753 516 394 366 603 982 944 808 666 949 1034 1094 1008 898 821 791 708 558 369 166 55 0 0
622 1616 1455 1465 1404 1247 1542 1870 1495 1199 1528 1454 1156 1307 1595 1717 1120 1092 1055 1180 1392 1661 1381 992 877 645 862 1624 1608 1606 1673 1956 1837 1659 1486 1307 1084 865 706 558 455 214 41
432 623 1438 1461 1499 1463 1267 1250 1571 1437 1217 1526 1497 1320 1149 1668 1800 1747 1423 1329 1210 1443 1826 2102 1977 1957 2082 1641 1565 1705 1844 1882 1995 1950 1862 1761 1667 1501 1297 1304 1122 689 490
1059 772 946 1567 1268 1214 1177 1276 1433 1482 1379 1434 1826 1994 1935 2159 1746 1746 1932 1964 1795 1588 1568 1690 1652 1670 2009 2103 2072 1974 1589 1734 1977 2233 1918 1745 1702 2463 2580 2399 2206 1837 1435
524 1272 1340 1310 1744 1482 1425 1259 1202 1386 1423 1634 1473 1508 2044 2014 1817 2051 2190 2216 2240 2096 2063 2178 2385 2562 2713 2383 2040 1566 1448 1663 1333 1582 1849 2138 2834 2943 2884 3061 2952 2615 1922
1484 892 858 1310 1436 1787 1730 1493 1253 1185 1947 1998 1791 1774 1836 1977 1936 1863 1861 2105 2561 2598 2597 2687 2604 2313 1885 1621 1307 1206 1453 1527 1729 2042 2347 2620 2793 2794 3087 3174 3166 2480 1906
448 1525 1626 1441 1336 1557 1716 1697 1574 1281 949 1292 1828 1889 1824 1793 1852 2002 1882 1630 1385 1342 1564 1741 1666 1592 1582 1476 1655 1887 1953 1793 1932 2238 2709 2734 2499 2968 3135 3154 3076 2308 1801
902 732 972 1507 1745 1744 1784 1712 1596 1384 1302 1127 1265 1750 1882 1833 1728 1647 1743 1834 1680 1508 1394 1349 1446 1735 1906 2046 2135 2022 1865 2202 2537 2679 2138 2447 3011 2893 2870 2946 2239 2007 728
1505 1250 1482 1708 1825 1948 1851 1754 1480 1035 1078 1238 1220 1181 1277 1377 1474 1572 1519 1486 1852 2454 2874 2592 2472 2368 2001 1735 1872 2002 2205 2389 2346 2131 2450 3016 3036 2791 2716 2358 1931 192 0
1313 1664 1511 1715 1939 1955 1979 1809 1622 1574 1017 906 1004 1172 1281 1429 1469 1476 1568 1497 1385 1145 1127 1111 1422 1525 1620 1843 2083 1805 2072 2248 2360 2911 3103 2960 2866 2847 2906 1767 1607 33 0

GFSMA_con_mlcape_072.txt.gz
CAPE
176 416 336 131 154 407 392 270 291 373 403 514 580 564 560 444 602 1030 1229 1199 1290 1174 1183 1232 1336 1165 1025 1086 917 999 616 242 402 854 608 371 584 554 512 292 357 307 303
243 328 201 11 116 318 304 325 341 392 410 464 346 412 257 63 239 576 839 897 1077 1249 1126 1183 1154 1095 1027 1003 804 843 646 282 378 336 160 55 41 326 442 432 308 260 200
379 28 106 2 112 110 360 350 404 525 436 335 289 246 115 10 46 53 173 355 839 787 1082 1176 1156 875 811 801 688 349 529 338 33 55 77 83 233 490 554 394 257 168 152
526 245 216 49 192 109 109 400 480 479 298 375 230 308 221 88 0 8 39 255 442 407 728 734 925 761 506 386 411 479 430 384 596 598 537 546 725 592 440 451 243 118 93
455 328 98 431 247 380 211 11 315 212 160 320 170 285 296 192 120 163 112 78 155 102 136 301 399 312 251 570 704 744 751 1019 869 689 591 505 554 542 504 374 202 76 49
407 253 174 289 168 214 352 58 128 94 123 152 99 130 305 320 358 315 412 462 341 322 146 59 148 179 231 557 853 1151 1179 852 791 678 563 756 729 503 339 197 137 64 19
352 398 474 614 477 44 131 64 66 32 78 80 100 91 131 211 143 214 383 656 771 650 649 525 437 265 309 411 605 658 676 969 979 869 657 485 307 183 83 96 65 58 21
36 132 344 440 173 14 354 282 48 9 21 23 112 19 52 14 93 77 159 373 519 757 855 806 819 549 491 444 382 476 464 265 391 451 406 287 149 68 14 0 0 0 1
483 542 542 456 539 102 302 157 40 3 0 0 53 75 15 1 91 18 54 270 379 239 578 769 866 720 586 499 541 553 507 189 46 121 125 87 29 0 0 0 0 0 0
898 859 672 854 494 427 353 406 309 15 4 3 146 96 53 8 182 0 0 54 100 90 335 379 540 659 616 517 519 606 556 313 32 3 17 25 25 0 0 0 0 0 0
1212 962 786 817 673 481 537 611 820 585 120 61 293 5 79 26 3 64 120 8 95 132 317 224 331 311 372 425 452 543 664 436 221 7 0 0 0 0 0 0 0 0 0
1028 1025 950 877 620 534 407 278 659 775 828 543 686 619 15 0 17 66 268 249 137 184 158 283 318 371 369 305 388 505 593 566 406 205 3 0 0 1 0 0 0 0 0
1005 1194 1216 1116 448 439 743 610 995 845 574 543 642 766 601 484 649 120 139 289 269 259 260 254 366 325 364 338 340 487 518 549 434 324 105 3 0 1 0 0 0 0 0
1004 1259 1442 1258 884 485 711 816 898 862 972 839 803 791 847 358 629 301 161 60 55 110 158 369 49 356 311 320 360 443 541 480 415 372 208 23 0 2 0 0 0 0 0
763 1041 1458 1328 1139 854 840 974 842 791 837 908 630 736 495 490 384 201 639 27 28 9 38 212 310 456 699 338 236 426 647 527 477 441 295 119 70 38 17 0 0 0 0
737 828 1132 1260 1041 882 700 823 752 718 717 698 715 575 505 310 135 70 831 306 62 65 68 156 228 327 913 840 791 761 627 567 505 444 389 294 266 287 197 184 102 70 79
842 1027 1120 954 1144 947 859 905 881 834 835 788 691 878 581 1085 528 511 464 1083 1057 560 377 293 326 686 891 666 1239 1456 1267 1266 1268 1345 1333 1236 1096 870 626 654 534 417 295
728 1032 935 1138 1207 1072 947 930 788 910 900 1070 906 842 803 1399 1394 1208 878 839 799 1051 1123 930 823 1175 1396 1573 1705 1449 1705 1889 1806 1824 1895 1792 1568 1338 1236 1234 1366 1290 1033
562 1240 1001 1087 1328 1121 1362 1263 1087 1023 1085 1127 1257 1200 997 952 1143 1449 1193 1289 1158 1195 1238 1503 1793 1648 1615 1501 1780 1925 2023 1674 1502 1770 1617 1346 1546 1629 1932 2142 2021 2008 1621
178 517 1334 1257 1173 1199 1404 1510 1469 1353 1220 1169 1168 1165 1323 1246 916 1140 1411 1473 1456 1598 1589 1402 1229 1181 1427 1998 2097 2153 2015 1730 1169 1304 1312 1411 1779 2197 2610 2595 2696 2634 2150
135 278 538 1185 1448 1407 1275 1087 1017 936 916 952 1147 1222 1376 1723 1829 1876 1901 1712 1756 1726 1696 1667 1713 1836 2078 1998 1942 1969 1392 1108 1436 1491 1510 1686 2170 2520 2560 2815 2893 2544 2063
72 234 257 594 830 1301 1263 1092 1083 1056 1006 940 721 954 1401 1448 1437 1626 1808 1970 1987 1769 1632 1785 2022 1933 1897 1813 1457 1320 1428 1655 1794 1635 1879 2051 2463 2493 2521 2826 2753 1756 533
0 169 382 617 1121 1236 1273 1201 1127 1063 981 1006 951 1001 1309 1459 1496 1625 1619 1665 1558 1741 1991 2015 1896 1798 1610 1438 1469 1603 1826 1808 1657 1788 2135 2426 2317 2297 2750 2692 1960 456 55
287 104 543 554 613 1120 1307 1289 1251 1237 1108 1003 1070 1202 1307 1268 1299 1435 1425 1241 1323 1324 1224 1143 1234 1363 1378 1480 1632 2015 1981 1774 1922 2215 2348 2360 2388 2643 2701 2290 374 27 0
818 465 353 920 1106 1062 889 835 875 1141 1234 1233 1101 1070 1215 1118 1017 1097 1422 1274 1206 1236 1439 1516 1616 1795 1894 2049 1967 1585 1712 1959 2121 2140 1935 2192 2836 2707 2657 1900 69 0 0
1135 993 762 537 653 1104 1370 1181 972 1192 995 1092 1201 1113 1019 1225 1189 1028 1128 1060 1036 1054 1102 978 1005 1035 1103 1235 1439 1379 1995 2147 2076 2211 2749 3039 2832 2897 2679 1618 514 0 0

GFSMA_con_mlcape_075.txt.gz
CAPE
77 129 90 29 105 318 380 256 319 305 513 541 517 651 614 452 581 692 1113 1325 1262 1300 1237 1200 1332 884 1073 1082 934 961 527 203 292 733 446 256 454 482 444 407 305 227 291
270 357 223 96 161 342 397 365 365 428 425 334 402 498 538 321 443 689 808 1163 1268 1095 1174 1336 1212 1177 990 1133 751 786 839 291 185 260 157 93 58 147 404 345 292 205 179
276 343 238 1 71 234 263 386 397 453 446 301 324 435 263 44 218 522 628 676 1125 1219 1186 1131 1168 933 829 806 853 474 459 530 197 72 114 120 298 501 436 498 312 150 76
285 139 105 77 127 110 306 363 414 390 313 336 214 183 28 0 51 75 94 168 467 689 952 1121 1060 1014 687 722 648 528 558 458 463 710 714 693 658 585 588 556 322 110 35
453 137 204 163 261 131 134 167 407 267 201 319 193 220 174 74 0 18 11 47 181 312 219 502 881 996 802 625 616 746 808 808 939 915 708 552 495 548 444 400 290 112 32
467 263 98 355 318 154 134 12 272 181 76 245 243 249 243 172 124 79 102 66 81 155 61 48 80 345 415 463 792 837 1147 1227 1039 824 683 521 653 599 388 206 121 85 42
459 260 222 312 239 94 185 45 115 63 60 40 55 52 30 205 227 321 333 414 496 456 380 390 196 179 177 335 439 721 946 607 736 1003 835 686 523 253 156 44 29 20 1
400 442 437 511 437 0 120 127 81 25 15 16 73 7 20 3 111 145 176 287 402 631 690 638 673 630 596 359 383 480 574 473 257 365 526 379 185 52 0 0 0 0 0
152 95 446 425 204 19 181 186 27 13 13 9 36 11 2 0 8 50 38 85 211 309 452 598 681 722 720 502 419 486 599 534 347 65 135 212 137 8 0 0 0 0 0
712 413 469 522 513 109 325 165 33 9 0 0 58 47 14 0 114 0 0 0 28 192 218 243 339 615 678 596 524 418 524 521 534 271 41 39 60 21 1 0 0 0 0
1128 829 731 704 542 459 340 403 474 28 11 8 89 3 40 38 0 0 119 1 7 88 34 222 326 324 342 429 456 444 470 540 594 510 321 75 5 27 50 14 0 0 0
1176 1087 906 738 826 555 490 488 678 596 543 82 292 428 83 3 0 122 99 256 82 59 100 134 217 280 270 267 302 394 472 514 560 580 474 354 181 16 24 33 33 1 0
791 1188 1021 872 771 690 516 458 503 650 662 588 505 618 210 314 561 92 104 201 139 138 204 120 195 226 273 273 262 326 367 443 469 452 429 378 270 183 31 3 48 68 18
790 897 1073 1076 1030 572 817 506 795 915 742 592 617 811 736 502 457 332 140 16 24 13 22 344 224 150 278 328 332 332 332 348 377 413 408 344 273 243 142 20 2 8 68
858 916 1110 1208 1232 977 534 837 819 821 893 760 678 707 550 519 475 200 492 41 7 6 0 40 217 271 461 649 505 345 282 400 475 507 551 541 515 471 411 226 100 123 122
720 855 1094 1140 1131 1220 996 767 970 904 861 581 718 766 640 476 337 126 303 387 62 14 37 23 139 184 510 842 726 905 1262 1203 1222 1242 1249 1281 1245 1023 887 803 525 427 487
808 762 860 1052 937 1225 1241 930 779 876 803 741 599 736 610 707 641 463 503 547 743 656 525 359 314 673 906 1241 1460 1379 1359 1836 1777 1478 1363 1206 1075 1100 1157 1144 1223 1303 1155
267 925 874 922 1056 1101 1188 1021 753 921 901 787 887 844 775 786 974 1314 1164 754 571 731 838 771 738 1025 1435 1418 1293 1307 1826 2076 1657 1835 948 1294 1114 1383 1536 1797 1867 1757 1673
0 232 808 1073 1102 1075 1046 1089 940 794 964 955 972 1283 1244 1039 830 946 1190 1138 1087 1144 1073 1134 1323 1414 1254 1159 1305 1844 1976 1852 1454 1154 1465 1228 1290 1488 1848 2158 2211 2171 1747
7 50 388 928 1022 932 1149 1168 1033 1012 988 1020 1126 1118 1103 1080 1316 1134 837 1101 1333 1273 1350 1422 1292 1238 1330 1624 1685 1525 1202 1380 1304 1441 1575 1275 1426 1905 2199 2206 2369 1974 1222
0 0 111 699 1140 1180 1139 1167 1131 1261 1292 1228 1260 1246 1187 1141 1125 1471 1495 1353 1628 1634 1570 1463 1391 1401 1401 1282 1266 1682 1550 1332 1392 1550 1431 1429 1727 2171 2347 2225 2250 1004 206
0 0 0 85 410 1182 1274 1109 1084 1245 1253 1193 1042 986 1055 1167 1129 1175 1315 1713 1988 1897 1781 1692 1566 1502 1363 1360 1343 1370 1246 1401 1781 1651 1586 1654 2034 2316 2077 2269 834 131 0
0 0 0 0 34 261 738 1086 1114 1224 1082 988 983 943 875 999 913 995 1238 1202 1204 1365 1662 1847 1757 1668 1514 1468 1408 1334 1369 1597 1884 1621 1661 1993 2105 2213 2068 588 50 0 0
0 0 0 0 0 25 75 99 555 1016 1071 1021 1004 977 952 967 996 1008 1287 1249 1235 1295 1166 1055 1217 1347 1506 1568 1386 1567 1658 1747 1539 1546 1804 2125 2020 2285 1829 37 0 0 0
154 70 27 0 29 60 113 123 285 879 1060 1088 1011 958 962 963 1057 932 1067 941 887 1136 1241 1097 1077 1039 980 1013 1148 1211 1455 1448 1505 1768 1690 1762 2201 2247 2214 463 0 0 0
694 526 350 98 172 337 178 158 254 569 782 986 1183 984 678 789 913 933 1046 1082 1011 920 1009 948 818 830 858 882 842 839 1352 1483 1684 1914 1857 2300 2506 2433 2578 1356 26 0 0

GFSMA_con_mlcape_078.txt.gz
CAPE
118 316 347 278 342 412 254 351 416 444 593 636 676 677 638 523 621 861 1179 1526 1256 1374 1234 1305 1182 891 1101 996 911 902 555 173 201 545 182 73 83 194 371 284 265 196 326
129 232 170 79 179 461 488 464 473 605 552 444 564 697 677 522 506 644 777 1254 1310 1248 1244 1239 1270 1140 992 1133 800 742 857 530 286 308 162 152 152 169 347 393 248 185 131
256 422 359 186 169 289 347 440 503 558 422 477 451 571 603 356 375 611 725 889 1331 1490 1488 1338 1246 1133 940 853 756 758 457 470 469 271 366 370 388 630 805 241 294 161 78
221 264 247 63 181 259 387 412 474 502 313 380 372 420 216 47 139 232 448 504 579 746 892 1347 1364 1261 1107 787 776 677 615 651 605 669 782 711 644 568 488 460 318 185 53
491 146 251 186 271 249 241 291 503 349 311 372 297 291 181 106 24 64 42 94 204 387 299 307 676 1034 1180 1084 816 767 871 933 910 999 886 770 614 572 533 269 186 119 51
390 209 245 273 368 176 180 78 409 154 168 283 299 389 338 319 233 149 151 143 127 207 299 156 100 125 419 625 600 912 1109 1188 1079 1009 825 684 492 495 391 207 76 58 37
358 314 169 248 367 242 212 63 136 157 142 22 229 207 130 239 373 382 395 397 385 413 413 377 417 345 321 323 383 502 600 951 818 415 484 620 591 404 151 59 0 0 0
469 338 230 379 166 143 279 170 148 63 66 78 164 80 57 3 7 204 203 210 342 469 621 686 670 641 670 632 555 446 581 631 618 550 215 344 448 317 123 11 0 0 0
547 336 360 422 355 107 151 190 58 32 34 15 54 95 57 0 0 39 52 58 123 220 361 425 589 632 663 682 653 463 390 478 596 630 548 97 83 133 55 0 0 0 0
534 50 363 490 361 121 246 175 60 17 2 20 70 128 22 23 61 82 0 0 5 90 201 284 332 356 422 599 589 603 520 421 428 558 674 593 281 65 88 23 0 0 0
906 532 493 535 410 391 264 360 183 64 10 0 8 54 78 47 14 0 71 217 37 66 128 147 196 337 368 363 397 412 399 415 404 425 478 624 612 540 437 408 306 75 2
808 904 676 644 595 313 407 350 568 218 199 38 198 430 213 10 249 285 134 232 228 172 170 220 214 233 250 273 290 307 347 373 352 353 403 454 529 587 625 542 471 508 376
561 933 989 900 643 557 516 511 536 595 609 467 429 610 284 321 629 181 112 133 137 185 288 215 192 205 269 316 352 339 377 310 251 223 253 332 472 590 638 668 659 591 604
473 616 845 1007 840 755 659 460 455 445 630 621 642 728 729 722 465 322 451 99 116 24 24 202 338 332 479 623 572 512 657 584 695 778 857 1006 1051 1007 886 729 753 682 529
456 626 746 858 890 742 612 573 490 501 832 827 650 684 658 613 630 390 252 305 83 113 74 59 233 222 389 850 815 1027 1204 1290 1298 1520 1270 1138 809 951 963 1017 839 814 951
508 624 785 928 863 808 739 642 522 730 782 811 812 842 832 692 619 410 204 213 203 186 229 67 226 271 721 1154 1500 1524 1326 1488 1907 1566 1551 857 1143 963 1214 1474 1593 1528 1398
354 609 746 916 919 684 600 763 807 689 806 760 750 645 581 753 727 717 587 653 482 369 684 797 541 746 1000 1569 1507 1325 1565 2124 2007 1662 1092 1357 1073 1165 1342 1487 1778 1782 1764
126 378 708 850 886 820 848 933 868 959 569 630 662 691 562 715 883 870 1234 1242 1078 730 772 743 901 1071 1368 1328 1409 1501 1800 1929 1740 1462 1461 1401 1170 1292 1550 1790 1849 1920 1640
0 41 230 748 912 869 899 1013 1037 1043 856 653 822 844 889 1052 1101 1013 921 983 1263 1166 1171 1149 1137 1529 1533 1456 1510 1713 1488 1619 1607 1401 1564 1386 1304 1561 1857 1876 1804 1533 895
0 0 52 200 538 852 980 972 893 994 951 787 743 825 959 1028 1112 1093 1246 1280 1081 1040 1294 1451 1549 1530 1459 1591 1506 1117 1159 1712 1490 1518 1805 1430 1439 1786 2085 1826 1360 473 35
0 0 0 55 204 456 834 917 830 936 966 861 880 893 963 1090 1108 1131 1139 1272 1550 1504 1664 1786 1679 1603 1648 1448 1439 1671 1488 1478 1489 1630 1868 1710 1961 2276 2401 1968 406 38 0
0 0 0 0 21 272 452 705 957 997 1087 1016 962 1107 1152 1106 1060 901 868 911 1207 1439 1648 1763 1709 1530 1485 1514 1589 1437 1462 1471 1371 1686 1810 1529 2118 2308 2063 625 0 0 0
0 0 0 0 0 6 114 205 513 1034 1091 1036 1029 1109 1024 964 901 1010 901 697 661 889 1150 1447 1337 1506 1457 1490 1535 1388 1403 1293 1312 1625 1598 1762 2082 2150 1514 10 0 0 0
0 0 0 0 0 0 0 2 54 457 803 979 997 990 979 987 945 944 956 976 978 1038 1046 891 1078 1318 1419 1360 1330 1315 1184 1218 1303 1438 1499 1891 2024 2148 811 2 0 0 0
0 26 10 0 30 44 0 0 0 30 126 345 438 546 747 882 907 713 965 770 970 1011 1066 814 833 953 947 845 793 837 988 1045 1135 1255 1568 1841 2021 2208 2167 633 0 0 0
271 91 46 29 0 140 39 1 0 14 1 0 87 224 239 664 674 618 783 658 578 755 973 1023 958 740 670 732 476 492 842 936 1126 1402 1669 1761 2043 2148 2583 1170 35 0 0

GFSMA_con_mlcape_084.txt.gz
CAPE
618 487 591 693 782 900 1057 1298 1439 1680 1551 1397 1440 1060 255 245 364 389 536 734 1118 1445 1249 1256 1182 798 920 985 610 617 872 649 508 447 310 308 304 332 740 747 527 296 198
755 832 980 1002 1145 1176 1303 1378 1681 1453 1254 1316 1489 1283 924 791 633 539 284 552 501 786 960 1143 1084 1054 1079 937 903 806 645 526 558 668 617 730 714 770 716 708 740 459 159
1280 1000 964 1003 1083 1439 1638 1603 1572 1320 977 986 1428 1347 948 896 951 1081 939 869 1017 511 661 914 1022 1104 1073 951 873 963 946 819 788 845 874 972 930 759 659 579 534 529 277
1439 1502 1075 838 1132 1305 1215 1188 1154 950 942 1020 1113 958 810 667 863 924 909 963 797 797 777 544 748 1011 1106 1326 1236 1089 902 845 872 953 1138 1249 889 704 615 685 513 277 251
1459 1128 944 1068 1318 1146 1088 994 1118 982 938 831 812 906 873 771 815 657 931 987 814 832 789 775 442 398 676 1138 1289 1126 940 1031 1080 1005 951 783 745 642 439 309 287 139 82
1112 1311 1206 1385 1125 950 986 1049 1065 1016 1009 962 650 656 704 775 878 792 794 745 879 1132 1001 1207 1190 877 735 588 594 674 724 784 835 935 979 595 345 324 238 150 73 0 0
1352 1575 1002 881 1117 922 1303 1331 1302 1104 687 969 716 492 282 410 616 579 627 613 866 985 1065 1247 1392 1008 894 932 839 741 683 693 744 880 902 785 491 113 24 69 53 1 0
1124 1314 1029 655 890 957 1453 1577 1399 644 657 756 370 136 108 268 249 246 329 432 535 663 768 1003 1206 1452 1445 1015 936 864 703 645 675 728 777 811 793 759 590 220 79 53 12
1411 1393 1014 1264 1431 1257 787 1608 1283 1019 478 797 1207 757 352 244 532 390 568 290 585 501 639 825 964 1155 1563 1388 1379 1239 1110 656 536 631 709 732 741 751 775 733 608 455 297
1496 1592 1687 1602 1868 1000 1006 1413 1036 833 873 108 604 625 1028 899 505 407 495 407 414 403 560 584 540 749 1214 1190 1067 1107 731 469 406 432 535 663 783 1014 1355 1640 1692 1469 1204
1519 1264 1464 1674 1677 1363 1524 1244 1477 1241 383 356 273 385 948 689 1371 861 405 421 292 382 573 740 745 710 1107 1345 1299 1192 585 433 459 623 846 1049 1170 1105 1228 1473 1655 1767 1900
1384 1735 1682 1822 1725 1370 1570 1518 1725 1696 1228 1014 532 603 569 446 695 821 616 513 505 498 742 842 851 990 1239 1498 1204 878 1000 1142 1061 1103 1324 1151 1174 976 1242 1311 1681 1917 1886
1067 1734 1914 1855 1357 1162 1504 1566 1230 1256 1434 1143 1331 497 619 688 878 1139 811 599 547 489 602 839 1122 1299 1255 1532 1581 1473 1890 1536 1268 1488 1431 1258 965 1210 985 1191 1499 1718 1964
1074 1163 1931 1564 1420 1466 1592 1584 1083 959 1139 1088 1492 1559 819 932 984 918 1008 766 526 487 670 700 727 830 925 1360 1623 1725 2024 2016 1496 1698 1227 1089 1207 1049 1037 1211 1319 1611 1814
954 1487 1746 1086 1266 1498 1672 1832 1172 1584 1608 1472 1301 1539 1320 752 1042 976 939 799 684 401 399 1086 647 869 958 963 1504 1987 2057 1858 1792 1770 1363 1255 1047 1020 1034 1270 1595 1739 1794
1037 1117 1826 1863 1332 1647 1663 1893 1397 1665 1505 1056 1058 1368 1686 729 934 997 930 676 624 460 340 287 688 1041 1678 1651 1451 1974 2248 1675 1515 1544 1323 1267 1149 1151 1294 1550 1634 1733 1540
1070 1411 1770 1769 1424 1670 1894 1958 1491 1475 1336 1267 1430 1640 1849 1695 1184 614 787 805 606 534 490 227 415 674 1743 1981 2215 2537 2296 1631 762 1231 1307 1284 1335 1422 1586 1523 1459 1319 955
936 1431 1608 1660 1587 1463 1817 2038 1609 1018 1567 1595 1424 1589 1711 1524 1823 1420 961 927 748 789 854 761 708 665 1097 1508 2047 2568 2037 1373 1472 1278 928 1074 1476 1647 1744 1340 796 465 144
972 1008 1354 1697 1557 1245 1587 2144 1919 1780 1830 1655 1751 1735 1579 1566 1756 1195 1271 981 1162 1342 1246 1130 880 878 979 1339 1798 1947 1699 1524 934 869 804 706 1371 1772 1842 916 251 8 0
955 749 963 1231 1548 1550 1199 1606 1847 2094 1967 2089 2129 2028 1773 1530 1729 2024 1797 1724 1953 1862 1530 1427 1129 1008 1085 1284 1624 1384 821 706 743 952 1014 1050 1045 1783 1387 736 43 0 0
1035 1028 801 792 1025 1241 1440 1397 1497 2026 2063 2212 2186 2280 2029 1679 1375 1602 1509 1533 1688 1871 1284 1027 953 933 951 1026 1219 714 684 619 730 627 657 991 773 2300 1113 302 11 0 0
1068 1135 1103 866 620 333 411 793 1399 1809 1646 2001 2035 2161 2171 1761 1599 1188 927 756 1018 1593 1529 862 303 253 811 953 601 606 624 604 606 545 874 665 932 2351 2818 2096 0 0 0
829 1116 1149 1071 1017 861 144 87 494 875 1106 1643 1860 1791 1761 1425 1748 1901 1450 940 753 703 769 1278 1422 1262 1075 1046 1279 1511 1401 1354 1157 992 995 1010 1242 2093 3055 38 0 0 0
1050 1046 1086 1176 1138 1169 745 275 26 542 833 1172 1326 1560 1836 1426 1195 1593 1853 1652 1772 1816 1559 1225 1172 1412 1521 1425 1516 1695 1855 1973 1580 1071 923 842 1091 1785 2732 1899 0 0 0
1115 1075 1062 1132 1253 1248 874 496 230 413 230 609 1082 1437 1659 1765 1772 1322 1432 1090 1193 1278 1056 1113 999 953 1126 1116 932 1024 846 550 292 94 154 323 684 1655 2166 2343 97 0 0
1107 1108 1036 1129 1160 1241 1192 689 247 514 444 353 293 993 1188 1242 1429 1301 1587 1443 1235 837 506 486 814 947 873 1113 559 767 1119 854 363 90 207 818 622 1158 1800 2481 2813 94 20

GFSMA_con_mlcape_087.txt.gz
CAPE
453 520 753 919 799 987 973 1171 1220 1146 879 1073 573 193 195 364 490 564 298 754 1219 1226 1119 1299 1028 757 807 1098 682 609 540 559 625 689 648 653 683 685 887 761 719 515 204
774 790 849 889 943 1207 1197 1296 1411 1013 703 823 991 605 502 460 562 557 605 146 208 494 646 1000 877 835 838 802 830 823 913 773 676 764 796 885 940 793 634 527 530 636 374
1357 927 901 1169 1105 1362 1601 1369 1297 1057 550 994 881 675 536 834 768 843 901 1192 587 267 326 582 742 834 901 921 826 870 855 790 818 874 937 1012 1043 685 567 541 559 361 413
1415 1585 1032 925 1017 1246 1260 1139 1187 765 1046 1039 989 823 572 713 846 881 719 1013 770 1272 770 527 567 711 859 1114 1286 1246 1091 931 816 700 621 683 602 525 444 320 363 408 146
1340 1557 776 1202 1411 995 984 867 1084 874 953 866 597 508 577 459 824 446 572 679 437 688 1051 818 609 471 623 842 1019 1025 887 717 700 702 718 552 257 252 299 196 102 60 51
1034 1746 1364 926 1534 843 1117 1169 1317 1277 825 930 588 409 425 394 361 441 516 629 697 906 861 966 1288 1182 722 661 530 505 569 641 683 743 728 768 683 374 110 77 84 52 22
1259 1734 1260 1225 1197 954 1420 1199 1109 1225 644 575 622 689 156 304 565 356 424 478 629 818 723 1027 1173 1003 1083 941 860 542 538 561 609 672 796 859 871 833 730 559 274 185 197
1321 1473 1384 802 1026 1257 1391 1543 1467 1233 428 436 889 525 195 245 225 303 245 270 443 588 650 868 734 1048 1129 1099 1239 699 698 641 699 808 874 865 824 778 729 715 712 700 614
1258 1395 1341 826 1148 1539 1054 1644 1357 1054 699 160 383 969 965 375 428 452 394 291 344 505 474 572 593 820 1221 1329 1123 1564 1121 690 645 646 752 861 906 1018 1185 1287 1404 1466 1372
1491 1384 1218 1395 1728 1197 1337 1405 1009 1490 1012 134 82 468 1042 1208 1405 517 352 148 227 437 423 552 554 803 1051 1483 938 1013 1052 698 464 524 776 1097 1320 1262 1210 1351 1530 1608 1809
1438 1377 1588 1687 1239 1501 1015 1562 1661 1347 629 643 352 323 593 265 606 837 474 308 269 387 574 800 655 768 1194 1371 1366 956 645 842 1039 1074 1281 1522 1332 1468 1423 1611 1584 1930 2094
1265 1388 1504 1861 1920 1688 1724 1484 1526 1654 1568 1391 1052 581 590 679 1001 929 541 619 572 537 761 752 824 963 1251 1534 1271 1118 1212 1384 1250 1188 1565 1361 1269 1165 1470 1361 1644 1822 1982
1059 1761 1807 1959 1580 1772 1636 1632 1788 1745 1592 1139 1026 651 671 316 527 720 795 410 759 580 710 827 1038 1153 1224 1388 1757 1447 1823 1849 1613 1325 1377 1004 1186 1266 1073 1159 1331 1628 2044
894 2354 2052 1692 1594 1558 1504 1696 1538 1047 1018 1225 1603 1641 1843 477 495 461 879 779 857 493 670 824 728 913 980 1097 1099 1595 1851 1862 1594 1405 1434 1169 1152 1022 992 1182 1517 1756 1909
880 1277 1290 1482 1501 1542 1567 1540 1538 1403 1836 1489 1511 1338 1296 986 502 438 421 517 631 796 692 1670 813 997 1326 1232 1325 1611 2060 2139 1482 1442 1667 1192 1094 1147 1215 1481 1621 1728 1712
796 675 1427 1563 1612 1492 1524 1576 1635 1616 1394 1393 894 1537 1400 556 646 527 508 506 515 435 480 509 503 936 1639 1842 1458 2028 2126 2118 1957 1344 1357 1115 1094 1300 1479 1616 1532 1590 1316
1140 1223 1838 1763 2004 1820 1840 1789 1863 1877 1842 1566 1455 1414 1591 1674 1328 552 538 489 472 505 466 456 488 647 1535 1471 1813 2202 2429 2280 1579 1124 1230 831 925 1374 1532 1646 1391 1025 459
1047 1135 1402 1692 1506 1775 1984 1929 1712 965 1345 1527 1448 1517 1427 1300 1844 1689 1158 988 752 1124 1053 1145 970 723 855 1222 1596 2362 2512 1844 1552 1036 968 653 763 1192 1459 1456 830 388 21
1286 981 1170 1702 1580 1575 1698 1909 2069 1820 1521 1701 1574 1503 1433 1571 1646 1567 1578 720 684 1292 1441 1414 1161 951 888 1075 1092 1978 2317 1767 1690 651 500 596 707 934 1227 1011 254 23 0
1415 1387 1157 1468 1792 1750 1458 1589 1871 1988 2059 2014 1853 1629 1565 1493 1748 1912 1974 1988 1795 1735 1455 1060 1025 995 907 1000 1171 1383 1190 759 699 663 710 612 541 569 1063 617 6 0 0
1470 1521 1522 1258 1419 1291 1323 1624 1587 1720 1836 1814 2276 2190 1959 1495 1345 1641 1494 1793 1526 1834 1400 1010 787 779 752 1143 1374 1129 697 638 664 556 396 587 305 840 787 174 0 0 0
1299 1766 1665 1560 1340 894 376 501 1513 1626 1808 1774 1797 2049 2496 1822 1593 1332 1047 844 1119 1900 1967 1049 495 275 728 611 373 558 780 570 620 647 561 506 516 680 1706 1620 0 0 0
1515 1584 1796 1728 1753 1704 892 68 273 922 1405 1965 1908 1979 2229 1378 1839 2155 1651 1032 571 414 518 1216 1723 1665 1291 1536 1503 1693 1018 1508 1189 949 848 1088 750 691 1042 425 85 0 0
1508 1703 1572 1846 1964 1976 1423 810 92 411 898 1266 1558 2120 2029 1938 2022 2308 2149 2024 2166 2045 1569 987 939 1149 1563 1976 1955 1829 1873 2242 1896 1782 1411 855 319 378 788 642 0 0 0
1298 1363 1494 1694 1852 1980 1571 1080 678 628 390 673 1151 1344 1643 2199 2245 1572 1567 1951 1972 2106 1401 1600 1637 1657 1546 1365 1155 1145 808 424 240 145 76 41 98 343 546 789 8 0 0
1014 1364 1396 1555 1656 1709 1811 1382 861 1054 907 856 1008 1042 791 927 1551 1818 1763 1720 1850 1890 1962 989 953 1040 920 905 531 554 827 771 463 341 143 87 90 193 300 638 986 27 0

GFSMA_con_mlcape_093.txt.gz
CAPE
26 218 177 8 89 82 133 260 564 798 1460 451 23 486 709 497 36 257 259 212 281 559 645 504 453 564 629 885 559 608 573 572 488 595 683 716 701 726 552 480 400 647 509
138 283 148 75 517 24 0 113 535 730 780 400 184 229 427 470 293 19 51 235 515 535 742 889 650 531 524 495 631 669 808 767 629 618 688 706 727 831 794 495 480 427 454
598 730 356 376 508 417 453 463 540 1104 793 328 741 418 268 291 280 71 45 141 485 340 398 603 480 321 335 327 443 540 590 467 374 403 347 343 451 618 495 396 379 360 490
1206 1187 738 638 574 747 1067 715 969 972 752 458 545 421 529 692 631 361 211 181 175 285 437 622 616 435 531 665 768 785 728 607 469 403 425 521 583 561 433 400 471 455 387
879 883 639 786 1149 733 503 827 462 711 860 772 760 794 626 451 624 744 690 525 431 583 424 380 563 472 527 804 792 665 549 476 441 452 566 688 796 915 1017 1090 1032 903 734
621 545 716 1053 962 702 866 985 832 602 564 345 635 751 508 392 568 568 288 690 661 752 870 721 752 891 554 720 628 452 394 428 475 552 632 750 855 921 1009 1092 1175 1218 1233
446 296 770 746 825 606 567 1223 1460 940 1122 475 599 742 322 281 529 456 477 587 531 710 1011 911 957 994 920 701 808 614 515 558 685 749 865 904 975 1108 1231 1350 1392 1423 1525
836 807 616 813 980 1016 1283 1487 1143 984 848 237 748 1215 482 184 267 387 495 598 584 732 905 996 1174 965 1030 927 1068 965 828 933 927 957 1003 1174 1369 1608 1548 1461 1466 1636 1632
1051 811 899 721 487 620 285 1326 718 450 346 446 412 897 786 824 513 77 182 424 97 586 609 768 913 801 763 1143 1461 1458 1249 1150 956 1039 1180 1350 1652 1510 1406 1511 1622 1638 1767
1191 1145 571 160 791 516 645 1175 1181 1163 886 940 669 750 684 889 1017 315 227 74 214 376 360 347 435 705 800 959 1303 1601 1359 1062 993 1282 1322 1336 1345 1254 1496 1537 1552 1575 1772
1196 1224 1066 907 571 347 546 944 1266 924 946 1261 923 1182 784 926 1061 975 229 78 51 235 271 243 497 608 832 974 1504 1051 994 964 1307 1421 1503 1340 1226 1218 1435 1491 1709 1993 2272
1072 1402 1286 960 623 614 537 770 1233 1156 742 1019 1376 1176 942 633 538 1020 852 524 246 257 332 563 540 716 826 1295 1147 980 1183 1256 1388 1579 1643 1347 1310 1139 1183 1512 1881 2173 2312
1082 855 1199 1170 1154 605 836 1115 1501 1182 1094 777 917 933 1040 1460 1450 982 480 713 675 605 783 665 665 983 1220 1284 1264 1321 1362 1699 1712 1643 1703 1520 1424 1262 998 1493 1851 1941 2080
851 1022 1143 1357 1188 1338 1362 1387 1136 1144 1153 745 571 826 555 902 1067 769 675 259 406 446 638 740 835 917 1061 1275 1291 1350 1390 1708 1773 1652 1454 1613 1621 1354 855 1372 1724 1688 1661
1282 1349 1194 1215 1449 1174 1103 1422 1243 1479 831 918 535 1166 741 549 438 798 1323 174 362 292 359 395 605 867 1414 1776 1193 1106 985 1278 1614 1448 1670 1773 1399 1048 750 1144 1756 1553 1302
672 983 851 1334 1442 1492 1131 1235 1055 1167 1077 1103 1211 1003 1277 1146 1049 720 906 1364 1140 769 430 490 632 1526 1383 875 708 786 815 1033 1329 1785 1794 1545 901 893 638 904 1611 1359 789
561 188 380 729 772 1187 1414 1245 1169 1094 973 920 1067 1552 847 1163 1077 1271 853 904 718 900 680 583 754 653 434 463 683 870 1115 1389 1421 1552 1673 1604 1074 894 514 669 1246 1101 414
782 651 90 0 342 796 1362 1421 1197 987 1030 712 903 1048 818 856 1119 1791 1394 784 1358 1104 1072 779 447 840 1274 1196 1064 774 1044 1889 1572 1644 1272 909 546 573 433 377 778 833 173
949 806 789 651 856 1030 1553 1386 1167 975 1385 1134 1220 1275 1185 1107 915 939 748 778 1135 1157 1324 1396 1250 1276 1386 1007 1036 1036 1290 1315 875 871 419 459 461 318 187 130 360 535 40
1666 1445 1329 1280 1542 1568 1394 1564 1499 1132 1118 1118 1414 1810 1651 1461 1258 1198 1234 1088 984 994 1011 972 1002 829 1052 1340 899 1060 712 717 510 260 112 659 480 139 82 108 159 328 1
1967 1788 1366 1156 1709 1754 1410 1261 1463 1637 1418 1297 944 1214 1705 1679 1912 1928 1727 1470 1359 1177 1637 1555 1576 1730 1578 1289 465 993 544 313 130 183 629 174 252 467 292 124 85 85 1
1663 1765 1885 1682 1351 1441 1751 1484 1387 1284 1448 1567 1350 1350 1473 1572 1433 1589 1805 1828 1561 1214 790 999 1045 1079 934 724 533 141 144 106 75 820 676 475 773 518 667 449 278 55 0
1216 1318 1284 1259 1601 1840 1545 1124 797 759 1264 1568 1585 1647 1479 1482 1413 1332 1543 1362 1024 742 815 734 222 88 76 86 185 234 206 332 507 613 1322 439 815 390 464 599 263 32 0
273 565 978 1353 1370 1341 1452 1347 1297 815 830 878 1208 1822 1797 1651 1472 1188 1472 1556 1649 1361 1226 1033 962 859 593 570 547 546 496 632 1044 1305 1262 412 359 26 137 30 4 0 0
0 24 238 512 1090 1119 1163 1305 1247 1275 1023 1036 1009 928 1005 1551 1771 1756 1568 1278 1369 1682 1736 1439 1422 1412 1426 1159 752 933 873 866 618 370 451 335 211 56 68 99 0 0 0
0 0 0 58 249 661 758 817 777 939 1055 1091 1272 1191 955 835 604 580 989 1127 1153 1483 1748 1763 1344 1078 1117 1226 987 721 811 601 613 411 365 293 186 162 229 262 1 0 0